Time,TemperatureF,DewpointF,PressureIn,WindDirection,WindDirectionDegrees,WindSpeedMPH,WindSpeedGustMPH,Humidity,HourlyPrecipIn,Conditions,Clouds,dailyrainin,SoftwareType,DateUTC
2013-06-05 00:02:00,49.1,33.6,29.32,NE,45,0.0,0.0,55,-99.99,,,-99.99,WSDL version 420,2013-06-05 04:02:00,
2013-06-05 00:04:00,49.1,33.6,-100.00,NE,45,0.0,0.0,55,-99.99,,,-99.99,WSDL version 420,2013-06-05 04:04:00,
2013-06-05 00:09:00,48.9,33.5,29.32,NE,45,0.0,0.0,55,0.00,,,0.00,WSDL version 420,2013-06-05 04:09:00,
2013-06-05 00:11:00,48.9,33.5,29.35,NE,45,0.0,0.0,55,-99.99,,,-99.99,WSDL version 420,2013-06-05 04:11:00,
2013-06-05 00:17:00,48.9,33.5,29.35,NE,45,0.0,0.0,55,0.00,,,0.00,WSDL version 420,2013-06-05 04:17:00,
2013-06-05 00:23:00,48.8,33.3,29.35,NE,45,0.0,0.0,55,0.00,,,0.00,WSDL version 420,2013-06-05 04:23:00,
2013-06-05 00:25:00,48.7,33.4,29.35,ENE,61,0.0,0.0,56,0.00,,,0.00,WSDL version 420,2013-06-05 04:25:00,
2013-06-05 00:31:00,48.7,33.8,29.32,ENE,68,0.0,0.0,56,0.00,,,0.00,WSDL version 420,2013-06-05 04:31:00,
2013-06-05 00:37:00,48.6,33.7,29.32,ENE,68,0.0,0.0,56,0.00,,,0.00,WSDL version 420,2013-06-05 04:37:00,
2013-06-05 00:43:00,48.5,34.0,29.32,ENE,68,0.0,0.0,57,-99.99,,,-99.99,WSDL version 420,2013-06-05 04:43:00,
2013-06-05 00:48:00,48.2,34.0,29.32,ENE,68,0.0,0.0,58,0.00,,,0.00,WSDL version 420,2013-06-05 04:48:00,
2013-06-05 00:54:00,48.1,34.0,29.32,ENE,68,0.0,0.0,58,0.00,,,0.00,WSDL version 420,2013-06-05 04:54:00,
2013-06-05 00:59:00,48.0,34.4,29.32,ENE,68,0.0,0.0,59,0.00,,,0.00,WSDL version 420,2013-06-05 04:59:00,
2013-06-05 01:05:00,48.0,34.6,29.32,ENE,68,0.0,0.0,60,-99.99,,,-99.99,WSDL version 420,2013-06-05 05:05:00,
2013-06-05 01:11:00,48.0,34.8,29.35,ENE,68,0.0,0.0,60,0.00,,,0.00,WSDL version 420,2013-06-05 05:11:00,
2013-06-05 01:17:00,47.8,34.6,29.35,ENE,68,0.0,0.0,60,-99.99,,,-99.99,WSDL version 420,2013-06-05 05:17:00,
2013-06-05 01:24:00,47.7,34.9,29.35,ENE,68,0.0,0.0,61,-99.99,,,-99.99,WSDL version 420,2013-06-05 05:24:00,
2013-06-05 01:30:00,47.7,35.1,29.35,ENE,68,0.0,0.0,62,0.00,,,0.00,WSDL version 420,2013-06-05 05:30:00,
2013-06-05 01:36:00,47.7,35.2,29.35,ENE,68,0.0,0.0,61,0.00,,,0.00,WSDL version 420,2013-06-05 05:36:00,
2013-06-05 01:45:00,47.5,35.9,29.35,ENE,68,0.0,0.0,64,0.00,,,0.00,WSDL version 420,2013-06-05 05:45:00,
2013-06-05 01:51:00,47.5,35.9,29.35,ENE,68,0.0,0.0,64,0.00,,,0.00,WSDL version 420,2013-06-05 05:51:00,
2013-06-05 01:58:00,47.5,35.9,29.32,ENE,68,0.0,0.0,64,0.00,,,0.00,WSDL version 420,2013-06-05 05:58:00,
2013-06-05 02:03:00,47.3,35.6,29.32,ENE,68,0.0,0.0,64,0.00,,,0.00,WSDL version 420,2013-06-05 06:03:00,
2013-06-05 02:11:00,47.3,35.8,29.32,ENE,68,0.0,0.0,64,-99.99,,,-99.99,WSDL version 420,2013-06-05 06:11:00,
2013-06-05 02:17:00,47.1,35.9,29.32,ENE,68,0.0,0.0,64,0.00,,,0.00,WSDL version 420,2013-06-05 06:17:00,
2013-06-05 02:23:00,47.1,35.9,-100.00,ENE,68,0.0,0.0,65,-99.99,,,-99.99,WSDL version 420,2013-06-05 06:23:00,
2013-06-05 02:29:00,47.1,36.0,29.35,ENE,68,0.0,0.0,65,-99.99,,,-99.99,WSDL version 420,2013-06-05 06:29:00,
2013-06-05 02:35:00,47.2,36.3,29.35,ENE,68,0.0,0.0,66,-99.99,,,-99.99,WSDL version 420,2013-06-05 06:35:00,
2013-06-05 02:43:00,47.3,36.1,29.32,ENE,68,0.0,0.0,65,0.00,,,0.00,WSDL version 420,2013-06-05 06:43:00,
2013-06-05 02:49:00,47.4,36.6,29.32,SSE,158,0.0,0.0,66,-99.99,,,-99.99,WSDL version 420,2013-06-05 06:49:00,
2013-06-05 02:55:00,47.7,37.1,29.32,ESE,113,0.0,0.0,67,-99.99,,,-99.99,WSDL version 420,2013-06-05 06:55:00,
2013-06-05 03:00:00,47.7,37.3,29.35,ESE,113,0.0,0.0,67,-99.99,,,-99.99,WSDL version 420,2013-06-05 07:00:00,
2013-06-05 03:10:00,47.7,37.5,29.35,ESE,113,0.0,0.0,67,0.00,,,0.00,WSDL version 420,2013-06-05 07:10:00,
2013-06-05 03:15:00,47.8,37.8,-100.00,ESE,113,0.0,0.0,68,-99.99,,,-99.99,WSDL version 420,2013-06-05 07:15:00,
2013-06-05 03:21:00,47.8,37.8,29.35,East,100,0.0,0.0,68,0.00,,,0.00,WSDL version 420,2013-06-05 07:21:00,
2013-06-05 03:27:00,47.9,38.2,-100.00,East,90,0.0,0.0,69,-99.99,,,-99.99,WSDL version 420,2013-06-05 07:27:00,
2013-06-05 03:33:00,48.0,38.3,29.32,East,90,0.0,0.0,69,0.00,,,0.00,WSDL version 420,2013-06-05 07:33:00,
2013-06-05 03:39:00,47.9,38.2,29.32,East,90,0.0,0.0,69,0.00,,,0.00,WSDL version 420,2013-06-05 07:39:00,
2013-06-05 03:45:00,47.8,38.3,29.35,East,90,0.0,0.0,70,0.00,,,0.00,WSDL version 420,2013-06-05 07:45:00,
2013-06-05 03:52:00,47.8,38.2,29.35,East,90,0.0,0.0,69,0.00,,,0.00,WSDL version 420,2013-06-05 07:52:00,
2013-06-05 03:58:00,47.7,38.4,29.32,East,90,0.0,0.0,70,-99.99,,,-99.99,WSDL version 420,2013-06-05 07:58:00,
2013-06-05 04:04:00,47.7,38.2,29.32,East,90,0.0,0.0,70,-99.99,,,-99.99,WSDL version 420,2013-06-05 08:04:00,
2013-06-05 04:10:00,47.5,38.0,29.32,East,90,0.0,0.0,69,-99.99,,,-99.99,WSDL version 420,2013-06-05 08:10:00,
2013-06-05 04:18:00,47.3,37.7,29.32,East,90,0.0,0.0,69,-99.99,,,-99.99,WSDL version 420,2013-06-05 08:18:00,
2013-06-05 04:27:00,47.1,37.7,29.32,East,90,0.0,0.0,69,-99.99,,,-99.99,WSDL version 420,2013-06-05 08:27:00,
2013-06-05 04:33:00,47.1,37.9,29.32,East,90,0.0,0.0,70,-99.99,,,-99.99,WSDL version 420,2013-06-05 08:33:00,
2013-06-05 04:43:00,47.1,37.9,29.35,East,90,0.0,0.0,70,-99.99,,,-99.99,WSDL version 420,2013-06-05 08:43:00,
2013-06-05 04:49:00,47.0,37.7,29.35,East,90,0.0,0.0,70,-99.99,,,-99.99,WSDL version 420,2013-06-05 08:49:00,
2013-06-05 04:55:00,46.9,37.7,29.35,East,90,0.0,0.0,70,-99.99,,,-99.99,WSDL version 420,2013-06-05 08:55:00,
2013-06-05 05:01:00,46.9,37.9,29.35,East,90,0.0,0.0,71,-99.99,,,-99.99,WSDL version 420,2013-06-05 09:01:00,
2013-06-05 05:06:00,46.9,38.0,29.35,East,90,0.0,0.0,71,0.00,,,0.00,WSDL version 420,2013-06-05 09:06:00,
2013-06-05 05:12:00,46.9,37.8,29.35,East,90,0.0,0.0,70,-99.99,,,-99.99,WSDL version 420,2013-06-05 09:12:00,
2013-06-05 05:18:00,46.9,37.8,29.35,ENE,77,0.0,0.0,71,-99.99,,,-99.99,WSDL version 420,2013-06-05 09:18:00,
2013-06-05 05:24:00,46.9,37.7,29.35,East,86,0.0,0.0,70,-99.99,,,-99.99,WSDL version 420,2013-06-05 09:24:00,
2013-06-05 05:33:00,46.8,37.5,29.35,East,90,0.0,0.0,70,-99.99,,,-99.99,WSDL version 420,2013-06-05 09:33:00,
2013-06-05 05:39:00,46.9,38.2,29.35,SW,233,0.0,0.0,72,-99.99,,,-99.99,WSDL version 420,2013-06-05 09:39:00,
2013-06-05 05:48:00,47.1,38.2,29.35,SSW,203,0.0,0.0,71,-99.99,,,-99.99,WSDL version 420,2013-06-05 09:48:00,
2013-06-05 05:55:00,47.3,38.4,29.35,SSW,203,0.0,0.0,71,-99.99,,,-99.99,WSDL version 420,2013-06-05 09:55:00,
2013-06-05 06:03:00,47.7,39.1,29.35,SW,221,0.0,0.0,72,0.00,,,0.00,WSDL version 420,2013-06-05 10:03:00,
2013-06-05 06:09:00,48.0,39.8,29.35,WSW,248,0.0,0.0,73,0.00,,,0.00,WSDL version 420,2013-06-05 10:09:00,
2013-06-05 06:14:00,48.3,39.9,29.35,WSW,248,0.0,0.0,72,0.00,,,0.00,WSDL version 420,2013-06-05 10:14:00,
2013-06-05 06:20:00,48.5,40.3,29.35,SW,233,0.0,0.0,73,-99.99,,,-99.99,WSDL version 420,2013-06-05 10:20:00,
2013-06-05 06:26:00,48.8,40.3,29.35,WSW,248,0.0,0.0,72,-99.99,,,-99.99,WSDL version 420,2013-06-05 10:26:00,
2013-06-05 06:32:00,49.1,40.7,29.35,SW,217,0.0,0.0,73,-99.99,,,-99.99,WSDL version 420,2013-06-05 10:32:00,
2013-06-05 06:38:00,49.3,41.0,29.35,WSW,248,0.0,0.0,73,-99.99,,,-99.99,WSDL version 420,2013-06-05 10:38:00,
2013-06-05 06:44:00,49.5,40.8,29.38,SW,228,0.0,0.0,72,0.00,,,0.00,WSDL version 420,2013-06-05 10:44:00,
2013-06-05 06:50:00,49.5,40.9,29.38,SW,225,0.0,0.0,73,-99.99,,,-99.99,WSDL version 420,2013-06-05 10:50:00,
2013-06-05 06:56:00,49.6,41.0,29.38,SSW,210,0.0,0.9,72,0.00,,,0.00,WSDL version 420,2013-06-05 10:56:00,
2013-06-05 07:02:00,49.8,41.1,29.38,SSW,209,0.0,0.0,72,0.00,,,0.00,WSDL version 420,2013-06-05 11:02:00,
2013-06-05 07:08:00,50.1,41.3,29.38,SW,236,0.0,0.0,72,-99.99,,,-99.99,WSDL version 420,2013-06-05 11:08:00,
2013-06-05 07:14:00,50.4,41.6,29.38,WSW,248,0.0,0.0,71,0.00,,,0.00,WSDL version 420,2013-06-05 11:14:00,
2013-06-05 07:19:00,50.7,41.7,29.38,WSW,248,0.0,0.0,71,0.00,,,0.00,WSDL version 420,2013-06-05 11:19:00,
2013-06-05 07:25:00,50.9,41.7,29.38,SSW,203,0.0,0.0,70,0.00,,,0.00,WSDL version 420,2013-06-05 11:25:00,
2013-06-05 07:31:00,51.2,41.8,29.38,SSW,203,0.0,0.0,70,0.00,,,0.00,WSDL version 420,2013-06-05 11:31:00,
2013-06-05 07:36:00,51.6,42.2,29.38,SSW,203,0.0,0.0,70,-99.99,,,-99.99,WSDL version 420,2013-06-05 11:36:00,
2013-06-05 07:42:00,51.6,41.7,29.38,SSW,203,0.0,0.0,68,-99.99,,,-99.99,WSDL version 420,2013-06-05 11:42:00,
2013-06-05 07:48:00,51.9,41.4,29.38,SW,228,0.0,0.0,67,0.00,,,0.00,WSDL version 420,2013-06-05 11:48:00,
2013-06-05 07:54:00,52.1,41.5,29.38,SW,219,0.0,0.0,67,0.00,,,0.00,WSDL version 420,2013-06-05 11:54:00,
2013-06-05 08:00:00,52.6,42.0,29.38,SSW,203,0.0,0.0,67,-99.99,,,-99.99,WSDL version 420,2013-06-05 12:00:00,
2013-06-05 08:08:00,53.1,42.4,29.38,SSW,203,0.0,0.0,67,-99.99,,,-99.99,WSDL version 420,2013-06-05 12:08:00,
2013-06-05 08:13:00,53.8,42.8,29.38,SW,225,0.0,0.0,66,0.00,,,0.00,WSDL version 420,2013-06-05 12:13:00,
2013-06-05 08:19:00,54.3,43.0,29.38,SW,216,0.0,0.0,65,0.00,,,0.00,WSDL version 420,2013-06-05 12:19:00,
2013-06-05 08:25:00,54.6,42.3,29.38,SSW,207,0.0,0.0,63,0.00,,,0.00,WSDL version 420,2013-06-05 12:25:00,
2013-06-05 08:33:00,55.3,42.4,29.38,South,183,0.0,0.0,61,-99.99,,,-99.99,WSDL version 420,2013-06-05 12:33:00,
2013-06-05 08:39:00,55.9,42.1,29.38,SSW,203,0.0,0.0,59,0.00,,,0.00,WSDL version 420,2013-06-05 12:39:00,
2013-06-05 08:45:00,56.7,42.8,29.38,SSW,203,0.0,0.0,59,0.00,,,0.00,WSDL version 420,2013-06-05 12:45:00,
2013-06-05 08:50:00,57.5,42.4,29.38,SSW,203,0.0,0.0,57,0.00,,,0.00,WSDL version 420,2013-06-05 12:50:00,
2013-06-05 08:56:00,58.0,42.6,29.38,SSW,203,0.0,0.0,56,0.00,,,0.00,WSDL version 420,2013-06-05 12:56:00,
2013-06-05 09:02:00,58.3,41.7,29.35,SSW,195,0.0,0.0,53,0.00,,,0.00,WSDL version 420,2013-06-05 13:02:00,
2013-06-05 09:08:00,58.4,41.5,29.35,SSW,203,0.0,0.0,53,0.00,,,0.00,WSDL version 420,2013-06-05 13:08:00,
2013-06-05 09:14:00,58.7,41.5,29.38,SW,214,0.0,0.0,52,0.00,,,0.00,WSDL version 420,2013-06-05 13:14:00,
2013-06-05 09:19:00,59.1,41.0,29.38,SW,214,0.0,0.0,51,-99.99,,,-99.99,WSDL version 420,2013-06-05 13:19:00,
2013-06-05 09:25:00,59.8,41.7,29.38,SW,225,0.0,0.0,51,0.00,,,0.00,WSDL version 420,2013-06-05 13:25:00,
2013-06-05 09:31:00,60.9,42.4,29.38,SSW,203,0.0,0.0,50,0.00,,,0.00,WSDL version 420,2013-06-05 13:31:00,
2013-06-05 09:40:00,61.9,41.5,29.38,SSW,203,0.0,0.0,47,-99.99,,,-99.99,WSDL version 420,2013-06-05 13:40:00,
2013-06-05 09:46:00,61.6,41.4,29.38,SW,225,0.0,0.0,47,0.00,,,0.00,WSDL version 420,2013-06-05 13:46:00,
2013-06-05 09:52:00,64.1,43.4,29.38,SSW,207,0.0,0.0,45,0.00,,,0.00,WSDL version 420,2013-06-05 13:52:00,
2013-06-05 09:58:00,66.1,43.3,29.38,SW,225,0.0,0.0,43,0.00,,,0.00,WSDL version 420,2013-06-05 13:58:00,
2013-06-05 10:04:00,68.0,44.1,29.38,SW,218,0.0,0.9,41,0.00,,,0.00,WSDL version 420,2013-06-05 14:04:00,
2013-06-05 10:10:00,68.6,41.1,29.38,SSW,196,0.0,0.9,37,0.00,,,0.00,WSDL version 420,2013-06-05 14:10:00,
2013-06-05 10:16:00,69.6,41.8,29.38,SSW,199,0.0,0.0,36,0.00,,,0.00,WSDL version 420,2013-06-05 14:16:00,
2013-06-05 10:22:00,70.3,41.0,29.38,South,190,0.0,0.0,34,0.00,,,0.00,WSDL version 420,2013-06-05 14:22:00,
2013-06-05 10:28:00,70.7,41.0,29.38,NE,56,0.0,0.0,34,0.00,,,0.00,WSDL version 420,2013-06-05 14:28:00,
2013-06-05 10:34:00,72.1,41.7,29.38,North,9,0.0,0.0,33,-99.99,,,-99.99,WSDL version 420,2013-06-05 14:34:00,
2013-06-05 10:39:00,73.3,41.7,29.38,North,355,0.0,0.0,32,0.00,,,0.00,WSDL version 420,2013-06-05 14:39:00,
2013-06-05 10:45:00,73.7,42.1,29.38,North,350,0.0,0.0,32,-99.99,,,-99.99,WSDL version 420,2013-06-05 14:45:00,
2013-06-05 10:50:00,72.0,40.3,29.38,SSE,158,0.0,0.0,31,0.00,,,0.00,WSDL version 420,2013-06-05 14:50:00,
2013-06-05 10:56:00,71.8,40.4,29.38,WNW,290,0.0,0.0,32,0.00,,,0.00,WSDL version 420,2013-06-05 14:56:00,
2013-06-05 11:05:00,70.9,40.4,-100.00,ENE,68,0.0,0.0,33,-99.99,,,-99.99,WSDL version 420,2013-06-05 15:05:00,
2013-06-05 11:11:00,71.6,41.8,29.38,ENE,77,0.0,0.0,34,0.00,,,0.00,WSDL version 420,2013-06-05 15:11:00,
2013-06-05 11:17:00,74.9,44.1,29.38,ENE,64,0.5,1.3,33,-99.99,,,-99.99,WSDL version 420,2013-06-05 15:17:00,
2013-06-05 11:25:00,75.8,43.6,29.38,NE,39,0.0,1.3,32,-99.99,,,-99.99,WSDL version 420,2013-06-05 15:25:00,
2013-06-05 11:31:00,75.3,43.0,29.38,NE,38,0.0,0.0,31,-99.99,,,-99.99,WSDL version 420,2013-06-05 15:31:00,
2013-06-05 11:38:00,72.8,40.4,29.38,SSW,203,0.0,0.0,31,-99.99,,,-99.99,WSDL version 420,2013-06-05 15:38:00,
2013-06-05 11:44:00,72.4,39.8,29.38,SW,234,0.0,2.0,30,-99.99,,,-99.99,WSDL version 420,2013-06-05 15:44:00,
2013-06-05 11:50:00,73.0,41.1,29.38,NNE,26,0.0,2.0,32,0.00,,,0.00,WSDL version 420,2013-06-05 15:50:00,
2013-06-05 11:55:00,75.6,43.7,29.41,ENE,64,0.6,2.5,32,-99.99,,,-99.99,WSDL version 420,2013-06-05 15:55:00,
2013-06-05 12:03:00,78.4,45.3,29.41,SE,141,0.0,2.5,31,0.00,,,0.00,WSDL version 420,2013-06-05 16:03:00,
2013-06-05 12:09:00,79.6,45.8,29.41,NNW,343,0.0,2.0,30,0.00,,,0.00,WSDL version 420,2013-06-05 16:09:00,
2013-06-05 12:14:00,80.8,46.3,29.38,ENE,68,0.4,2.9,29,0.00,,,0.00,WSDL version 420,2013-06-05 16:14:00,
2013-06-05 12:20:00,80.8,45.3,29.38,NNE,16,0.0,2.9,29,0.00,,,0.00,WSDL version 420,2013-06-05 16:20:00,
2013-06-05 12:26:00,81.4,45.8,29.38,East,100,0.0,0.0,28,0.00,,,0.00,WSDL version 420,2013-06-05 16:26:00,
2013-06-05 12:36:00,82.4,44.1,29.38,East,79,0.0,0.0,26,-99.99,,,-99.99,WSDL version 420,2013-06-05 16:36:00,
2013-06-05 12:42:00,82.3,44.8,29.35,ENE,71,0.0,0.0,27,-99.99,,,-99.99,WSDL version 420,2013-06-05 16:42:00,
2013-06-05 12:48:00,82.5,42.8,29.35,ENE,68,0.0,0.0,24,0.00,,,0.00,WSDL version 420,2013-06-05 16:48:00,
2013-06-05 12:54:00,83.3,44.2,29.35,ENE,75,0.0,0.0,26,0.00,,,0.00,WSDL version 420,2013-06-05 16:54:00,
2013-06-05 12:59:00,83.6,43.0,29.35,East,90,0.0,0.0,25,0.00,,,0.00,WSDL version 420,2013-06-05 16:59:00,
2013-06-05 13:05:00,82.8,41.0,29.35,ENE,77,0.1,4.9,22,-99.99,,,-99.99,WSDL version 420,2013-06-05 17:05:00,
2013-06-05 13:11:00,83.5,44.0,29.35,ENE,62,0.0,4.9,25,0.00,,,0.00,WSDL version 420,2013-06-05 17:11:00,
2013-06-05 13:16:00,84.1,44.2,29.35,ENE,74,0.0,2.2,25,-99.99,,,-99.99,WSDL version 420,2013-06-05 17:16:00,
2013-06-05 13:22:00,84.6,43.2,29.35,East,80,0.9,3.1,23,-99.99,,,-99.99,WSDL version 420,2013-06-05 17:22:00,
2013-06-05 13:31:00,83.7,42.0,29.32,NE,56,1.2,3.6,23,0.00,,,0.00,WSDL version 420,2013-06-05 17:31:00,
2013-06-05 13:37:00,83.5,40.7,-100.00,SE,143,0.2,3.6,22,0.00,,,0.00,WSDL version 420,2013-06-05 17:37:00,
2013-06-05 13:42:00,82.8,42.3,29.32,ENE,75,0.0,2.7,24,0.00,,,0.00,WSDL version 420,2013-06-05 17:42:00,
2013-06-05 13:50:00,82.6,41.1,29.32,East,79,0.7,5.6,23,-99.99,,,-99.99,WSDL version 420,2013-06-05 17:50:00,
2013-06-05 13:56:00,81.9,41.3,29.32,East,100,0.0,2.9,24,0.00,,,0.00,WSDL version 420,2013-06-05 17:56:00,
2013-06-05 14:02:00,81.2,41.0,29.32,ENE,61,0.6,3.1,24,0.00,,,0.00,WSDL version 420,2013-06-05 18:02:00,
2013-06-05 14:08:00,79.5,39.0,29.32,NE,35,0.8,3.1,25,0.00,,,0.00,WSDL version 420,2013-06-05 18:08:00,
2013-06-05 14:14:00,77.9,39.0,29.32,ENE,77,1.4,6.0,25,0.00,,,0.00,WSDL version 420,2013-06-05 18:14:00,
2013-06-05 14:20:00,77.5,39.9,29.32,ENE,62,1.7,6.0,26,-99.99,,,-99.99,WSDL version 420,2013-06-05 18:20:00,
2013-06-05 14:27:00,76.9,39.5,29.32,NE,34,0.0,4.9,26,0.00,,,0.00,WSDL version 420,2013-06-05 18:27:00,
2013-06-05 14:33:00,76.5,39.1,29.32,North,5,0.7,2.5,26,0.00,,,0.00,WSDL version 420,2013-06-05 18:33:00,
2013-06-05 14:39:00,75.5,38.5,29.32,East,83,0.0,2.5,27,0.00,,,0.00,WSDL version 420,2013-06-05 18:39:00,
2013-06-05 14:45:00,75.6,39.0,29.32,East,95,0.2,4.0,27,0.00,,,0.00,WSDL version 420,2013-06-05 18:45:00,
2013-06-05 14:52:00,75.6,40.2,29.32,NE,42,0.0,2.5,28,-99.99,,,-99.99,WSDL version 420,2013-06-05 18:52:00,
2013-06-05 14:58:00,75.5,39.4,29.32,East,90,0.0,4.3,28,0.00,,,0.00,WSDL version 420,2013-06-05 18:58:00,
2013-06-05 15:04:00,75.7,39.7,29.32,ENE,63,0.0,4.3,28,-99.99,,,-99.99,WSDL version 420,2013-06-05 19:04:00,
2013-06-05 15:11:00,75.8,39.5,29.32,ENE,64,0.0,4.0,27,0.00,,,0.00,WSDL version 420,2013-06-05 19:11:00,
2013-06-05 15:17:00,74.6,37.5,29.32,NE,41,0.4,1.3,26,0.00,,,0.00,WSDL version 420,2013-06-05 19:17:00,
2013-06-05 15:23:00,74.6,38.2,29.32,ENE,76,0.0,1.3,28,0.00,,,0.00,WSDL version 420,2013-06-05 19:23:00,
2013-06-05 15:29:00,75.0,39.4,29.32,ENE,59,1.5,6.3,28,0.00,,,0.00,WSDL version 420,2013-06-05 19:29:00,
2013-06-05 15:35:00,74.5,38.4,29.32,ENE,61,1.4,6.3,26,0.00,,,0.00,WSDL version 420,2013-06-05 19:35:00,
2013-06-05 15:41:00,73.9,36.9,29.32,SE,139,0.0,3.6,26,0.00,,,0.00,WSDL version 420,2013-06-05 19:41:00,
2013-06-05 15:47:00,73.8,36.4,29.32,North,9,0.0,0.9,25,0.00,,,0.00,WSDL version 420,2013-06-05 19:47:00,
2013-06-05 15:53:00,73.6,36.6,29.32,North,349,0.0,0.9,26,0.00,,,0.00,WSDL version 420,2013-06-05 19:53:00,
2013-06-05 15:58:00,73.4,36.5,29.35,East,83,0.0,2.7,26,-99.99,,,-99.99,WSDL version 420,2013-06-05 19:58:00,
2013-06-05 16:04:00,73.8,37.0,29.35,NE,54,1.1,2.7,26,-99.99,,,-99.99,WSDL version 420,2013-06-05 20:04:00,
2013-06-05 16:13:00,73.9,37.9,29.32,NE,34,0.0,1.3,27,-99.99,,,-99.99,WSDL version 420,2013-06-05 20:13:00,
2013-06-05 16:22:00,73.5,36.5,29.32,NNE,15,1.3,2.7,26,-99.99,,,-99.99,WSDL version 420,2013-06-05 20:22:00,
2013-06-05 16:28:00,73.3,36.4,29.32,NNW,335,0.0,2.7,26,-99.99,,,-99.99,WSDL version 420,2013-06-05 20:28:00,
2013-06-05 16:34:00,73.2,37.3,29.32,North,356,0.0,0.9,27,-99.99,,,-99.99,WSDL version 420,2013-06-05 20:34:00,
2013-06-05 16:39:00,73.2,36.9,29.32,ENE,71,2.4,5.4,27,-99.99,,,-99.99,WSDL version 420,2013-06-05 20:39:00,
2013-06-05 16:45:00,73.4,37.4,29.32,East,86,0.4,5.4,27,-99.99,,,-99.99,WSDL version 420,2013-06-05 20:45:00,
2013-06-05 16:51:00,73.2,36.3,-100.00,North,10,0.0,2.0,26,-99.99,,,-99.99,WSDL version 420,2013-06-05 20:51:00,
2013-06-05 16:57:00,72.7,35.9,29.32,NE,54,0.0,0.0,26,-99.99,,,-99.99,WSDL version 420,2013-06-05 20:57:00,
2013-06-05 17:03:00,72.6,35.8,29.32,NE,55,0.2,1.3,26,0.00,,,0.00,WSDL version 420,2013-06-05 21:03:00,
2013-06-05 17:08:00,72.4,35.6,29.32,NE,45,0.0,1.3,26,-99.99,,,-99.99,WSDL version 420,2013-06-05 21:08:00,
2013-06-05 17:14:00,72.5,36.6,29.32,ENE,75,0.0,4.9,27,-99.99,,,-99.99,WSDL version 420,2013-06-05 21:14:00,
2013-06-05 17:20:00,72.7,36.8,29.32,NE,54,1.2,2.7,27,-99.99,,,-99.99,WSDL version 420,2013-06-05 21:20:00,
2013-06-05 17:37:00,72.3,37.0,29.29,ENE,74,0.4,4.0,28,-99.99,,,-99.99,WSDL version 420,2013-06-05 21:37:00,
2013-06-05 17:43:00,71.9,36.4,29.32,North,360,0.0,4.0,27,0.00,,,0.00,WSDL version 420,2013-06-05 21:43:00,
2013-06-05 17:50:00,71.2,36.4,29.32,ESE,110,0.1,3.6,28,-99.99,,,-99.99,WSDL version 420,2013-06-05 21:50:00,
2013-06-05 17:56:00,71.1,36.4,29.29,ENE,68,0.0,3.6,28,-99.99,,,-99.99,WSDL version 420,2013-06-05 21:56:00,
2013-06-05 18:05:00,71.2,36.5,29.29,North,9,0.0,1.6,28,-99.99,,,-99.99,WSDL version 420,2013-06-05 22:05:00,
2013-06-05 18:11:00,71.0,36.3,29.29,North,3,0.0,1.6,28,-99.99,,,-99.99,WSDL version 420,2013-06-05 22:11:00,
2013-06-05 18:22:00,70.3,36.6,29.29,ENE,68,0.4,1.3,29,-99.99,,,-99.99,WSDL version 420,2013-06-05 22:22:00,
2013-06-05 18:27:00,70.2,35.6,29.29,NNE,13,0.0,5.6,28,-99.99,,,-99.99,WSDL version 420,2013-06-05 22:27:00,
2013-06-05 18:33:00,70.0,35.4,29.29,NE,55,0.0,0.9,28,-99.99,,,-99.99,WSDL version 420,2013-06-05 22:33:00,
2013-06-05 18:39:00,69.8,36.1,29.29,NE,42,1.4,4.0,29,-99.99,,,-99.99,WSDL version 420,2013-06-05 22:39:00,
2013-06-05 18:45:00,69.4,35.8,29.29,ENE,65,0.3,4.0,29,-99.99,,,-99.99,WSDL version 420,2013-06-05 22:45:00,
2013-06-05 18:52:00,69.3,36.6,29.29,ENE,68,0.0,2.0,30,0.00,,,0.00,WSDL version 420,2013-06-05 22:52:00,
2013-06-05 18:58:00,69.2,36.5,29.29,ENE,62,0.0,1.6,30,-99.99,,,-99.99,WSDL version 420,2013-06-05 22:58:00,
2013-06-05 19:04:00,68.9,36.3,29.29,NE,55,0.8,2.7,30,-99.99,,,-99.99,WSDL version 420,2013-06-05 23:04:00,
2013-06-05 19:10:00,68.7,36.9,29.29,ENE,74,0.0,3.4,31,0.00,,,0.00,WSDL version 420,2013-06-05 23:10:00,
2013-06-05 19:15:00,68.5,37.5,29.29,East,80,0.0,3.4,32,-99.99,,,-99.99,WSDL version 420,2013-06-05 23:15:00,
2013-06-05 19:21:00,68.5,37.5,29.29,East,79,0.0,1.6,32,-99.99,,,-99.99,WSDL version 420,2013-06-05 23:21:00,
2013-06-05 19:27:00,68.5,37.5,29.26,North,0,0.0,1.3,32,-99.99,,,-99.99,WSDL version 420,2013-06-05 23:27:00,
2013-06-05 19:32:00,68.4,37.4,29.26,ENE,68,0.4,3.1,32,-99.99,,,-99.99,WSDL version 420,2013-06-05 23:32:00,
2013-06-05 19:38:00,68.2,37.2,29.26,NE,48,0.0,3.1,32,-99.99,,,-99.99,WSDL version 420,2013-06-05 23:38:00,
2013-06-05 19:47:00,67.8,37.7,29.26,ENE,68,0.0,1.6,33,-99.99,,,-99.99,WSDL version 420,2013-06-05 23:47:00,
2013-06-05 19:52:00,67.6,37.9,29.26,ENE,58,0.0,1.3,34,-99.99,,,-99.99,WSDL version 420,2013-06-05 23:52:00,
2013-06-05 19:58:00,67.4,38.1,29.26,NE,56,0.8,2.7,34,-99.99,,,-99.99,WSDL version 420,2013-06-05 23:58:00,
2013-06-05 20:03:00,66.9,37.7,29.26,NNW,334,0.0,2.7,34,-99.99,,,-99.99,WSDL version 420,2013-06-06 00:03:00,
2013-06-05 20:09:00,66.6,37.4,29.26,North,350,0.0,2.5,34,-99.99,,,-99.99,WSDL version 420,2013-06-06 00:09:00,
2013-06-05 20:15:00,65.9,37.5,29.26,North,354,0.2,2.2,35,-99.99,,,-99.99,WSDL version 420,2013-06-06 00:15:00,
2013-06-05 20:24:00,64.9,36.7,29.26,NE,41,0.0,2.7,35,-99.99,,,-99.99,WSDL version 420,2013-06-06 00:24:00,
2013-06-05 20:30:00,64.6,36.6,29.26,NNE,16,0.0,2.7,35,-99.99,,,-99.99,WSDL version 420,2013-06-06 00:30:00,
2013-06-05 20:36:00,64.2,36.4,29.26,North,357,0.0,2.0,36,-99.99,,,-99.99,WSDL version 420,2013-06-06 00:36:00,
2013-06-05 20:42:00,63.6,36.2,29.26,NNW,340,0.0,0.0,36,-99.99,,,-99.99,WSDL version 420,2013-06-06 00:42:00,
2013-06-05 20:48:00,63.2,35.8,29.26,NNW,345,0.0,1.3,36,-99.99,,,-99.99,WSDL version 420,2013-06-06 00:48:00,
2013-06-05 20:54:00,62.9,35.5,29.26,NNW,338,0.0,0.0,36,-99.99,,,-99.99,WSDL version 420,2013-06-06 00:54:00,
2013-06-05 20:59:00,62.6,35.4,29.26,NNW,338,0.0,0.0,37,-99.99,,,-99.99,WSDL version 420,2013-06-06 00:59:00,
2013-06-05 21:05:00,62.1,35.5,29.26,NNW,341,0.0,3.4,37,-99.99,,,-99.99,WSDL version 420,2013-06-06 01:05:00,
2013-06-05 21:11:00,61.7,35.2,29.29,NNE,26,0.0,1.3,37,0.00,,,0.00,WSDL version 420,2013-06-06 01:11:00,
2013-06-05 21:17:00,61.3,34.8,29.29,NNE,23,0.0,0.0,37,-99.99,,,-99.99,WSDL version 420,2013-06-06 01:17:00,
2013-06-05 21:23:00,61.0,34.6,29.29,NE,45,0.0,0.0,37,-99.99,,,-99.99,WSDL version 420,2013-06-06 01:23:00,
2013-06-05 21:29:00,60.7,35.0,29.29,NE,48,0.0,1.1,38,-99.99,,,-99.99,WSDL version 420,2013-06-06 01:29:00,
2013-06-05 21:35:00,60.4,34.7,-100.00,NE,55,0.0,1.1,38,-99.99,,,-99.99,WSDL version 420,2013-06-06 01:35:00,
2013-06-05 21:41:00,60.3,34.6,29.26,NNW,344,0.0,0.0,38,-99.99,,,-99.99,WSDL version 420,2013-06-06 01:41:00,
2013-06-05 21:48:00,60.0,34.3,29.26,ENE,58,0.0,0.0,38,-99.99,,,-99.99,WSDL version 420,2013-06-06 01:48:00,
2013-06-05 21:54:00,59.8,34.4,29.26,North,3,0.0,1.6,38,0.00,,,0.00,WSDL version 420,2013-06-06 01:54:00,
2013-06-05 22:00:00,59.7,34.7,29.26,NE,35,0.0,0.0,39,0.00,,,0.00,WSDL version 420,2013-06-06 02:00:00,
2013-06-05 22:05:00,59.5,34.6,29.26,NNE,26,0.0,0.0,39,0.00,,,0.00,WSDL version 420,2013-06-06 02:05:00,
2013-06-05 22:11:00,59.4,34.4,-100.00,North,353,0.0,0.0,39,0.00,,,0.00,WSDL version 420,2013-06-06 02:11:00,
2013-06-05 22:17:00,59.2,34.3,29.29,NNW,338,0.0,0.0,39,-99.99,,,-99.99,WSDL version 420,2013-06-06 02:17:00,
2013-06-05 22:23:00,59.2,34.6,29.29,North,5,0.0,0.0,39,0.00,,,0.00,WSDL version 420,2013-06-06 02:23:00,
2013-06-05 22:29:00,58.8,34.6,29.26,North,354,0.0,0.0,40,0.00,,,0.00,WSDL version 420,2013-06-06 02:29:00,
2013-06-05 22:35:00,58.8,34.7,29.26,NE,41,0.0,0.0,41,0.00,,,0.00,WSDL version 420,2013-06-06 02:35:00,
2013-06-05 22:41:00,58.8,35.1,29.26,NNE,23,0.0,0.0,41,-99.99,,,-99.99,WSDL version 420,2013-06-06 02:41:00,
2013-06-05 22:47:00,58.6,35.2,29.26,ENE,58,0.0,0.0,42,0.00,,,0.00,WSDL version 420,2013-06-06 02:47:00,
2013-06-05 22:53:00,58.5,35.3,29.26,NNW,338,0.0,0.0,41,0.00,,,0.00,WSDL version 420,2013-06-06 02:53:00,
2013-06-05 22:59:00,58.3,35.3,29.26,North,3,0.0,0.0,42,-99.99,,,-99.99,WSDL version 420,2013-06-06 02:59:00,
2013-06-05 23:05:00,58.1,35.1,29.26,North,360,0.0,0.0,42,0.00,,,0.00,WSDL version 420,2013-06-06 03:05:00,
2013-06-05 23:11:00,58.0,35.0,29.23,NNE,23,0.0,0.0,42,0.00,,,0.00,WSDL version 420,2013-06-06 03:11:00,
2013-06-05 23:17:00,57.9,35.4,29.23,ENE,68,0.0,0.0,43,0.00,,,0.00,WSDL version 420,2013-06-06 03:17:00,
2013-06-05 23:23:00,57.6,35.5,29.23,NNE,23,0.0,0.0,43,0.00,,,0.00,WSDL version 420,2013-06-06 03:23:00,
2013-06-05 23:29:00,57.4,35.3,29.26,ENE,68,0.0,0.0,44,-99.99,,,-99.99,WSDL version 420,2013-06-06 03:29:00,
2013-06-05 23:35:00,57.1,35.7,29.26,ENE,68,0.0,0.0,45,0.00,,,0.00,WSDL version 420,2013-06-06 03:35:00,
2013-06-05 23:41:00,57.0,35.9,29.23,ENE,68,0.0,0.0,45,-99.99,,,-99.99,WSDL version 420,2013-06-06 03:41:00,
2013-06-05 23:47:00,57.0,35.9,29.23,ENE,68,0.0,0.0,45,-99.99,,,-99.99,WSDL version 420,2013-06-06 03:47:00,
2013-06-05 23:52:00,56.8,35.7,29.23,ESE,113,0.0,0.0,45,-99.99,,,-99.99,WSDL version 420,2013-06-06 03:52:00,
2013-06-05 23:59:00,56.8,35.9,29.23,ESE,113,0.0,0.0,45,0.00,,,0.00,WSDL version 420,2013-06-06 03:59:00,